VHSAR LIMC-LIPB

Flight info

Callsign VHSAR
Flight time N/A
Altitude 19000
Route NEVNI L615 IDREK DCT ADOSA
Aircraft E55P/M-BDGRSWXY/LB2

Departure

Time 2026-02-21 05:34
Airport Milan Malpensa International Airport (LIMC)

Arrival

Time N/A
Airport Bolzano Airport (LIPB)
Time Latitude Longitude Altitude Speed Heading
2026-02-21 05:11 45.63470 8.71662 748 ft 0 kts 349°
2026-02-21 05:24 45.63471 8.71662 748 ft 0 kts
2026-02-21 05:24 45.63473 8.71663 748 ft 0 kts 34°
2026-02-21 05:24 45.63474 8.71666 748 ft 0 kts 70°
2026-02-21 05:25 45.63473 8.71670 748 ft 0 kts 128°
2026-02-21 05:25 45.63459 8.71672 747 ft 3 kts 178°
2026-02-21 05:25 45.63425 8.71677 747 ft 5 kts 156°
2026-02-21 05:25 45.63419 8.71732 747 ft 6 kts 81°
2026-02-21 05:26 45.63421 8.71800 747 ft 7 kts 132°
2026-02-21 05:26 45.63362 8.71836 745 ft 10 kts 169°
2026-02-21 05:26 45.63171 8.71889 742 ft 16 kts 168°
2026-02-21 05:27 45.63047 8.71927 739 ft 19 kts 169°
2026-02-21 05:27 45.62913 8.71960 737 ft 18 kts 171°
2026-02-21 05:27 45.62789 8.71994 734 ft 17 kts 167°
2026-02-21 05:27 45.62674 8.72026 731 ft 16 kts 170°
2026-02-21 05:28 45.62568 8.72053 731 ft 14 kts 170°
2026-02-21 05:28 45.62479 8.72077 730 ft 12 kts 167°
2026-02-21 05:28 45.62403 8.72102 730 ft 10 kts 169°
2026-02-21 05:28 45.62328 8.72123 729 ft 11 kts 167°
2026-02-21 05:29 45.62241 8.72148 727 ft 13 kts 172°
2026-02-21 05:29 45.62141 8.72171 725 ft 15 kts 169°
2026-02-21 05:29 45.62027 8.72204 722 ft 17 kts 168°
2026-02-21 05:29 45.61895 8.72241 716 ft 20 kts 170°
2026-02-21 05:30 45.61744 8.72282 711 ft 23 kts 169°
2026-02-21 05:30 45.61581 8.72326 707 ft 24 kts 168°
2026-02-21 05:30 45.61416 8.72387 701 ft 24 kts 141°
2026-02-21 05:30 45.61282 8.72522 694 ft 23 kts 170°
2026-02-21 05:31 45.61122 8.72566 690 ft 22 kts 168°
2026-02-21 05:31 45.61082 8.72610 689 ft 0 kts 112°
2026-02-21 05:33 45.61081 8.72619 688 ft 3 kts 105°
2026-02-21 05:33 45.61086 8.72690 688 ft 10 kts 76°
2026-02-21 05:33 45.61116 8.72801 688 ft 14 kts 17°
2026-02-21 05:33 45.61296 8.72767 693 ft 54 kts 351°
2026-02-21 05:34 45.61900 8.72605 716 ft 116 kts 351°
2026-02-21 05:34 45.62803 8.72374 1020 ft 147 kts 349°
2026-02-21 05:34 45.63778 8.71953 1803 ft 150 kts 326°
2026-02-21 05:34 45.64439 8.70622 2140 ft 191 kts 283°
2026-02-21 05:35 45.64611 8.68725 3062 ft 198 kts 281°
2026-02-21 05:35 45.64835 8.66817 4082 ft 200 kts 282°
2026-02-21 05:35 45.65089 8.64894 5113 ft 202 kts 282°
2026-02-21 05:35 45.65362 8.62944 6080 ft 206 kts 283°
2026-02-21 05:36 45.65651 8.60959 6995 ft 209 kts 284°
2026-02-21 05:36 45.65959 8.58897 7832 ft 214 kts 284°
2026-02-21 05:36 45.66270 8.56848 8661 ft 217 kts 285°
2026-02-21 05:36 45.66593 8.54737 9510 ft 220 kts 285°
2026-02-21 05:37 45.66906 8.52619 10335 ft 223 kts 283°
2026-02-21 05:37 45.67194 8.50442 11158 ft 226 kts 284°
2026-02-21 05:37 45.67119 8.48220 11920 ft 236 kts 250°
2026-02-21 05:37 45.66148 8.46323 12709 ft 241 kts 234°
2026-02-21 05:38 45.65075 8.44483 13469 ft 245 kts 234°
2026-02-21 05:38 45.63971 8.42623 14218 ft 249 kts 230°
2026-02-21 05:38 45.62446 8.41462 14859 ft 264 kts 192°
2026-02-21 05:38 45.60620 8.41800 15473 ft 275 kts 158°
2026-02-21 05:39 45.58837 8.42890 16107 ft 282 kts 158°
2026-02-21 05:39 45.57120 8.44267 16690 ft 286 kts 133°
2026-02-21 05:39 45.56402 8.45701 17068 ft 282 kts 109°
2026-02-21 05:39 45.56133 8.48350 17690 ft 265 kts 73°
2026-02-21 05:40 45.56455 8.50878 18369 ft 264 kts 69°
2026-02-21 05:40 45.56834 8.53450 19036 ft 266 kts 68°
2026-02-21 05:40 45.57260 8.56138 19240 ft 288 kts 68°
2026-02-21 05:40 45.57727 8.59036 19268 ft 316 kts 69°
2026-02-21 05:41 45.58235 8.62209 19267 ft 329 kts 69°
2026-02-21 05:41 45.58754 8.65457 19265 ft 336 kts 69°
2026-02-21 05:41 45.59289 8.68794 19264 ft 343 kts 69°
2026-02-21 05:41 45.59840 8.72234 19264 ft 349 kts 69°
2026-02-21 05:42 45.60384 8.75627 19264 ft 353 kts 69°
2026-02-21 05:42 45.60944 8.79095 19264 ft 358 kts 70°
2026-02-21 05:42 45.61494 8.82553 19264 ft 362 kts 70°
2026-02-21 05:42 45.62048 8.86052 19263 ft 365 kts 71°
2026-02-21 05:43 45.62618 8.89639 19263 ft 368 kts 71°
2026-02-21 05:43 45.63182 8.93203 19263 ft 371 kts 71°
2026-02-21 05:43 45.63750 8.96788 19263 ft 373 kts 71°
2026-02-21 05:43 45.64323 9.00415 19263 ft 375 kts 71°
2026-02-21 05:44 45.64609 9.04158 19263 ft 385 kts 84°
2026-02-21 05:44 45.64636 9.08000 19263 ft 387 kts 83°
2026-02-21 05:44 45.64658 9.11846 19263 ft 388 kts 83°
2026-02-21 05:44 45.64678 9.15674 19263 ft 389 kts 83°
2026-02-21 05:45 45.64698 9.19534 19263 ft 390 kts 83°
2026-02-21 05:45 45.64717 9.23397 19263 ft 391 kts 83°
2026-02-21 05:45 45.64738 9.27276 19263 ft 392 kts 84°
2026-02-21 05:45 45.64756 9.31164 19264 ft 393 kts 84°
2026-02-21 05:46 45.64768 9.35056 19264 ft 394 kts 84°
2026-02-21 05:46 45.64780 9.38949 19264 ft 394 kts 84°
2026-02-21 05:46 45.64791 9.42836 19264 ft 395 kts 84°
2026-02-21 05:46 45.64803 9.46754 19258 ft 395 kts 84°
2026-02-21 05:47 45.64813 9.50672 19240 ft 396 kts 84°
2026-02-21 05:47 45.64821 9.54631 19237 ft 396 kts 84°
2026-02-21 05:47 45.64828 9.58525 19237 ft 396 kts 84°
2026-02-21 05:47 45.64835 9.62427 19237 ft 396 kts 84°
2026-02-21 05:48 45.64849 9.66338 19236 ft 396 kts 85°
2026-02-21 05:48 45.64862 9.70185 19235 ft 396 kts 85°
2026-02-21 05:48 45.64873 9.74095 19235 ft 397 kts 85°
2026-02-21 05:48 45.64887 9.77816 19235 ft 396 kts 85°
2026-02-21 05:49 45.64897 9.81335 19236 ft 397 kts 86°